K8JMX-13 Weather Reports


Display with metric or nautical units.
time (UTC)temp
F
wind
direction
speed
MPH
gust
MPH
rain 1hr
in
rain 24hr
in
rain mn
in
humidity
%
barometer
mb
20260506224118 56 14 0.0 3.0 0.00 0.28 0.28 49 1012.2
20260506223614 56 293 2.0 3.0 0.00 0.28 0.28 50 1012.2
20260506223110 56 61 1.0 4.0 0.00 0.28 0.28 50 1012.2
20260506222608 56 1 3.0 3.0 0.00 0.28 0.28 50 1012.4
20260506222104 56 340 2.0 6.0 0.00 0.28 0.28 50 1012.4
20260506221602 56 233 2.0 4.0 0.00 0.28 0.28 50 1012.3
20260506221059 56 292 2.0 3.0 0.00 0.28 0.28 48 1012.1
20260506220555 57 24 1.0 3.0 0.00 0.28 0.28 49 1012.0
20260506220051 57 55 0.0 2.0 0.00 0.28 0.28 49 1011.9
20260506215548 57 266 2.0 7.0 0.00 0.28 0.28 48 1011.9
20260506215044 57 46 4.0 4.0 0.00 0.28 0.28 48 1011.8
20260506214541 57 35 1.0 4.0 0.00 0.28 0.28 47 1011.7
20260506214038 56 44 1.0 1.0 0.00 0.28 0.28 49 1011.8
20260506213536 56 73 0.0 2.0 0.00 0.28 0.28 49 1011.6
20260506213033 56 3 3.0 7.0 0.00 0.28 0.28 47 1011.7
20260506212529 57 46 1.0 6.0 0.00 0.28 0.28 48 1011.4
20260506212024 57 322 2.0 4.0 0.00 0.28 0.28 47 1011.4
20260506211520 57 24 1.0 7.0 0.00 0.28 0.28 48 1011.4
20260506211018 57 287 2.0 8.0 0.00 0.28 0.28 48 1011.5
20260506210514 57 136 0.0 4.0 0.00 0.28 0.28 47 1011.4
20260506210006 57 296 5.0 7.0 0.00 0.28 0.28 47 1011.3
20260506205503 57 301 2.0 6.0 0.00 0.28 0.28 47 1011.5
20260506204958 57 348 2.0 3.0 0.00 0.28 0.28 48 1011.3
20260506204456 57 322 4.0 6.0 0.00 0.28 0.28 48 1011.4
20260506203953 57 359 2.0 4.0 0.00 0.28 0.28 49 1011.3
20260506203450 58 315 3.0 7.0 0.00 0.28 0.28 49 1011.3
20260506202946 58 66 3.0 4.0 0.00 0.28 0.28 48 1011.2
20260506202444 58 342 3.0 8.0 0.00 0.28 0.28 49 1011.3
20260506201940 58 63 0.0 4.0 0.00 0.28 0.28 49 1011.2
20260506201438 57 8 1.0 6.0 0.00 0.28 0.28 49 1011.3
20260506200934 57 327 4.0 4.0 0.00 0.28 0.28 49 1011.1
20260506200431 57 79 3.0 6.0 0.00 0.28 0.28 49 1011.1
20260506195927 57 51 3.0 13.0 0.00 0.28 0.28 50 1011.2
20260506195424 57 43 2.0 2.0 0.00 0.28 0.28 50 1011.2
20260506194921 58 51 3.0 7.0 0.00 0.28 0.28 51 1011.1
20260506194418 58 23 2.0 7.0 0.00 0.28 0.28 48 1011.0
20260506193915 58 347 4.0 6.0 0.00 0.28 0.28 48 1011.2
20260506193412 59 331 2.0 7.0 0.00 0.28 0.28 50 1011.0
20260506192908 59 342 6.0 7.0 0.00 0.28 0.28 48 1011.3
20260506192405 58 86 4.0 8.0 0.00 0.28 0.28 48 1011.1
20260506191902 59 45 5.0 9.0 0.00 0.28 0.28 47 1011.0
20260506191358 59 74 2.0 4.0 0.00 0.28 0.28 50 1010.9
20260506190855 60 24 4.0 9.0 0.00 0.28 0.28 48 1011.0
20260506190352 61 41 1.0 3.0 0.00 0.28 0.28 45 1010.8
20260506185849 60 74 2.0 6.0 0.00 0.28 0.28 48 1011.0
20260506185346 60 17 2.0 7.0 0.00 0.28 0.28 45 1010.9
20260506184843 61 296 4.0 9.0 0.00 0.28 0.28 45 1010.9
20260506184340 60 321 5.0 6.0 0.00 0.28 0.28 45 1011.0
20260506183837 60 54 5.0 7.0 0.00 0.28 0.28 47 1010.8
20260506183332 60 4 4.0 7.0 0.00 0.28 0.28 44 1010.9
20260506182830 60 53 4.0 7.0 0.00 0.28 0.28 48 1011.1
20260506182327 61 16 3.0 4.0 0.00 0.28 0.28 48 1011.1
20260506181825 60 294 4.0 6.0 0.00 0.28 0.28 46 1011.1
20260506181322 60 16 3.0 4.0 0.00 0.28 0.28 47 1011.0
20260506180819 59 349 4.0 4.0 0.00 0.28 0.28 49 1011.1
20260506180315 60 25 5.0 10.0 0.00 0.28 0.28 47 1011.1
20260506175812 59 41 1.0 4.0 0.00 0.28 0.28 46 1011.0
20260506175309 60 327 2.0 6.0 0.00 0.28 0.28 48 1010.9
20260506174806 60 275 6.0 9.0 0.00 0.28 0.28 46 1011.2
20260506174303 60 301 2.0 7.0 0.00 0.28 0.28 48 1011.2
20260506173801 59 162 1.0 4.0 0.00 0.28 0.28 48 1011.2
20260506173257 59 7 4.0 8.0 0.00 0.28 0.28 49 1011.3
20260506172754 60 338 3.0 4.0 0.00 0.28 0.28 48 1011.3
20260506172251 59 69 2.0 3.0 0.00 0.28 0.28 49 1011.1
20260506171748 59 337 3.0 6.0 0.00 0.28 0.28 49 1011.2
20260506171245 58 345 3.0 6.0 0.00 0.28 0.28 50 1011.1
20260506170743 59 78 4.0 4.0 0.00 0.28 0.28 50 1011.1
20260506170239 59 271 3.0 4.0 0.00 0.28 0.28 48 1011.2
20260506165738 59 282 3.0 3.0 0.00 0.28 0.28 53 1011.1
20260506165234 58 315 3.0 4.0 0.00 0.28 0.28 49 1011.0
20260506164732 57 7 2.0 7.0 0.00 0.28 0.28 52 1011.1
20260506164229 58 8 2.0 9.0 0.00 0.28 0.28 50 1011.1
20260506163725 58 14 2.0 4.0 0.00 0.28 0.28 52 1011.2
20260506163220 57 320 0.0 6.0 0.00 0.28 0.28 53 1011.4
20260506162716 57 30 2.0 4.0 0.00 0.28 0.28 48 1011.3
20260506162214 56 65 0.0 6.0 0.00 0.28 0.28 53 1011.1
20260506161711 56 345 2.0 2.0 0.00 0.28 0.28 52 1011.4
20260506161208 55 248 3.0 4.0 0.00 0.28 0.28 53 1011.4
20260506160706 56 92 2.0 6.0 0.00 0.28 0.28 49 1011.1
20260506160202 55 63 3.0 4.0 0.00 0.28 0.28 53 1011.0
20260506155701 55 2 2.0 2.0 0.00 0.28 0.28 50 1011.0
20260506155158 55 16 4.0 4.0 0.00 0.28 0.28 52 1010.9
20260506153259 53 215 2.0 7.0 0.00 0.28 0.28 57 1010.9
20260506152756 54 49 4.0 6.0 0.00 0.28 0.28 56 1010.8
20260506152254 53 332 2.0 6.0 0.00 0.28 0.28 58 1010.9
20260506151753 53 317 2.0 2.0 0.00 0.28 0.28 59 1010.6
20260506151249 53 62 1.0 7.0 0.00 0.28 0.28 61 1010.6
20260506150745 53 39 3.0 6.0 0.00 0.28 0.28 57 1010.3
20260506150243 53 300 1.0 4.0 0.00 0.28 0.28 60 1010.3
20260506145739 53 36 1.0 4.0 0.00 0.28 0.28 60 1010.6
20260506145236 52 8 5.0 8.0 0.00 0.28 0.28 63 1010.3
20260506144733 52 12 2.0 4.0 0.00 0.28 0.28 64 1010.5
20260506144230 51 20 2.0 3.0 0.00 0.28 0.28 64 1010.6
20260506143728 51 77 3.0 4.0 0.00 0.28 0.28 64 1010.5
20260506143225 51 57 1.0 6.0 0.00 0.28 0.28 66 1010.4
20260506142724 50 80 2.0 8.0 0.00 0.28 0.28 66 1010.2
20260506142221 50 1 4.0 8.0 0.00 0.28 0.28 66 1010.3
20260506141719 50 79 2.0 6.0 0.00 0.28 0.28 68 1010.0
20260506141217 50 23 5.0 8.0 0.00 0.28 0.28 69 1009.9
20260506140715 50 49 3.0 7.0 0.00 0.28 0.28 70 1010.0
20260506140211 49 21 2.0 2.0 0.00 0.28 0.28 73 1009.6
20260506135708 49 72 3.0 9.0 0.00 0.28 0.28 71 1009.9
20260506135204 49 30 1.0 7.0 0.00 0.28 0.28 72 1009.9
20260506134701 48 53 5.0 13.0 0.00 0.28 0.28 72 1009.7
20260506134157 48 15 1.0 6.0 0.00 0.28 0.28 75 1009.7
20260506133655 48 24 3.0 7.0 0.00 0.28 0.28 74 1009.6
20260506133151 48 34 5.0 8.0 0.00 0.28 0.28 75 1009.4
20260506132649 48 15 5.0 8.0 0.00 0.28 0.28 76 1009.5
20260506132145 47 25 4.0 4.0 0.00 0.28 0.28 77 1009.4
20260506131643 47 341 3.0 4.0 0.00 0.28 0.28 81 1009.6
20260506131139 47 8 2.0 7.0 0.00 0.28 0.28 82 1009.6
20260506130636 47 52 4.0 7.0 0.00 0.28 0.28 84 1009.6
20260506130133 48 359 0.0 2.0 0.00 0.28 0.28 86 1009.7
20260506125632 47 340 2.0 2.0 0.00 0.28 0.28 86 1009.6
20260506125129 48 39 4.0 4.0 0.00 0.28 0.28 85 1009.5
20260506124627 47 30 2.0 3.0 0.00 0.28 0.28 84 1009.3
20260506124124 47 58 1.0 2.0 0.00 0.28 0.28 84 1009.2
20260506123622 47 55 1.0 7.0 0.00 0.28 0.28 85 1009.0
20260506123120 47 64 0.0 2.0 0.00 0.28 0.28 87 1008.9
20260506122616 47 86 1.0 4.0 0.00 0.28 0.28 88 1008.3
20260506122115 47 16 1.0 2.0 0.00 0.28 0.28 88 1008.3
20260506121612 47 351 2.0 3.0 0.00 0.28 0.28 89 1008.4
20260506121108 47 56 2.0 2.0 0.00 0.28 0.28 89 1008.4
20260506120606 47 10 1.0 2.0 0.00 0.28 0.28 89 1008.2
20260506115601 47 43 1.0 2.0 0.00 0.28 0.28 90 1008.5
20260506115059 46 50 0.0 6.0 0.00 0.28 0.28 90 1008.2
20260506114556 47 29 1.0 3.0 0.00 0.28 0.28 90 1008.5
20260506114054 46 21 1.0 3.0 0.00 0.28 0.28 90 1008.3
20260506113552 47 5 2.0 3.0 0.00 0.28 0.28 90 1008.5
20260506113049 47 320 1.0 2.0 0.00 0.28 0.28 91 1008.5
20260506112546 47 20 0.0 2.0 0.00 0.28 0.28 91 1007.8
20260506112043 47 0 2.0 2.0 0.00 0.28 0.28 91 1007.4
20260506111541 46 59 3.0 9.0 0.00 0.28 0.28 91 1007.0
20260506111038 46 64 2.0 4.0 0.00 0.28 0.28 91 1007.1
20260506110536 46 54 0.0 3.0 0.00 0.28 0.28 91 1007.1
20260506110033 46 64 6.0 9.0 0.00 0.28 0.28 91 1007.4
20260506105528 46 65 4.0 6.0 0.00 0.28 0.28 91 1007.2
20260506105026 46 36 4.0 7.0 0.00 0.28 0.28 91 1007.2
20260506104524 47 44 2.0 3.0 0.00 0.28 0.28 91 1007.4
20260506104022 46 341 3.0 4.0 0.00 0.28 0.28 91 1007.5
20260506103519 47 51 2.0 3.0 0.00 0.28 0.28 91 1007.6
20260506103015 47 41 2.0 4.0 0.00 0.28 0.28 91 1007.5
20260506102514 46 353 1.0 6.0 0.00 0.28 0.28 91 1007.4
20260506102011 46 44 2.0 3.0 0.00 0.28 0.28 91 1007.1
20260506101507 46 31 1.0 6.0 0.00 0.28 0.28 91 1006.8
20260506101004 46 68 0.0 2.0 0.00 0.28 0.28 91 1006.5
20260506100503 46 75 0.0 3.0 0.00 0.28 0.28 91 1006.6
20260506100000 46 59 2.0 4.0 0.05 0.28 0.28 91 1006.0
20260506095459 46 31 1.0 3.0 0.05 0.28 0.28 91 1006.3
20260506094954 46 24 1.0 6.0 0.00 0.27 0.27 91 1006.6
20260506094453 46 47 2.0 6.0 0.00 0.27 0.27 91 1006.0
20260506093950 46 37 4.0 6.0 0.00 0.27 0.27 91 1005.8
20260506093449 46 73 1.0 4.0 0.00 0.27 0.27 91 1006.3
20260506092946 47 41 3.0 6.0 0.00 0.27 0.27 91 1006.0
20260506092444 46 55 1.0 4.0 0.00 0.27 0.27 91 1006.5
20260506091940 47 359 2.0 6.0 0.00 0.27 0.27 91 1006.7
20260506091438 47 14 1.0 4.0 0.00 0.27 0.27 91 1006.6
20260506090935 47 55 1.0 8.0 0.00 0.27 0.27 91 1006.4
20260506090433 46 46 2.0 4.0 0.00 0.27 0.27 91 1006.0
20260506085929 46 74 2.0 9.0 0.07 0.27 0.27 91 1006.1
20260506085426 46 38 4.0 6.0 0.07 0.27 0.27 91 1006.2
20260506084922 46 73 0.0 9.0 0.00 0.26 0.26 91 1006.6
20260506084419 47 53 2.0 6.0 0.05 0.26 0.26 91 1006.7
20260506083910 46 5 6.0 9.0 0.12 0.26 0.26 91 1006.5
20260506083407 47 32 6.0 8.0 0.12 0.25 0.25 91 1006.6
20260506082905 47 79 1.0 8.0 0.12 0.24 0.24 91 1006.4
20260506082402 47 11 4.0 7.0 0.12 0.23 0.23 91 1006.1
20260506081857 47 8 1.0 3.0 0.05 0.22 0.22 91 1006.3
20260506081356 47 37 1.0 9.0 0.07 0.21 0.21 91 1006.3
20260506080853 47 44 3.0 7.0 0.07 0.21 0.21 91 1006.2
20260506080350 47 56 5.0 8.0 0.00 0.20 0.20 91 1006.2
20260506073333 46 28 2.0 9.0 0.00 0.19 0.19 91 1005.9
20260506072830 47 359 4.0 8.0 0.00 0.19 0.19 91 1005.5
20260506072328 47 24 7.0 8.0 0.05 0.19 0.19 91 1006.0
20260506071826 47 23 2.0 6.0 0.05 0.19 0.19 91 1005.6
20260506071324 48 31 2.0 4.0 0.07 0.18 0.18 91 1005.7
20260506070820 48 48 2.0 7.0 0.07 0.18 0.18 91 1005.6
20260506070317 48 60 2.0 4.0 0.05 0.17 0.17 91 1005.7
20260506062254 49 35 0.0 4.0 0.07 0.10 0.10 91 1005.9
20260506061750 49 22 2.0 3.0 0.12 0.09 0.09 91 1005.8
20260506061247 49 62 0.0 6.0 0.19 0.09 0.09 91 1005.7
20260506060745 49 9 1.0 4.0 0.17 0.08 0.08 91 1005.8
20260506060243 49 23 1.0 7.0 0.05 0.06 0.06 91 1005.8
20260506051214 50 54 4.0 6.0 0.07 0.01 0.01 91 1006.1
20260506050712 50 23 2.0 2.0 0.00 0.00 0.00 91 1006.1
20260506050209 50 66 0.0 2.0 0.00 0.00 0.00 91 1006.3
20260506044700 50 56 0.0 2.0 0.00 0.00 0.00 91 1006.2
20260506044157 50 63 2.0 3.0 0.00 0.00 0.00 91 1006.3
20260506043654 50 45 4.0 6.0 0.00 0.00 0.00 91 1006.1
20260506043152 50 46 4.0 6.0 0.00 0.00 0.00 91 1006.1
20260506042651 50 12 2.0 6.0 0.00 0.00 0.00 91 1006.4
20260506042149 50 65 2.0 3.0 0.00 0.00 0.00 91 1006.3
20260506041647 50 73 0.0 2.0 0.00 0.00 0.00 91 1006.3
20260506041143 50 76 0.0 2.0 0.00 0.00 0.00 91 1006.1
20260506040641 50 58 3.0 6.0 0.00 0.00 0.00 91 1006.4
20260506040138 50 49 4.0 10.0 0.00 0.00 0.00 91 1006.3
20260506035635 51 35 8.0 10.0 0.05 0.56 0.56 91 1006.6
20260506035131 51 62 4.0 6.0 0.05 0.56 0.56 91 1006.6
20260506034629 51 48 2.0 6.0 0.00 0.55 0.55 91 1006.7
20260506034125 51 39 1.0 4.0 0.07 0.55 0.55 91 1006.7
20260506033623 51 107 1.0 4.0 0.05 0.54 0.54 91 1006.8
20260506033119 51 57 1.0 3.0 0.12 0.54 0.54 90 1006.8
20260506032617 51 75 5.0 7.0 0.14 0.53 0.53 90 1006.8
20260506032114 52 55 1.0 4.0 0.19 0.52 0.52 90 1006.8
20260506031611 54 62 2.0 4.0 0.24 0.51 0.51 90 1007.1
20260506031108 56 314 2.0 6.0 0.28 0.49 0.49 90 1007.1
20260506030606 57 312 0.0 2.0 0.24 0.46 0.46 90 1006.9
20260506030103 59 276 1.0 4.0 0.19 0.44 0.44 90 1006.8
20260506025600 59 140 0.0 3.0 0.07 0.42 0.42 90 1006.9
20260506025056 59 303 3.0 4.0 0.00 0.41 0.41 90 1007.0
20260506024553 59 221 3.0 4.0 0.05 0.41 0.41 90 1006.8
20260506024050 59 232 3.0 4.0 0.05 0.41 0.41 91 1006.7
20260506023545 59 192 2.0 2.0 0.07 0.40 0.40 91 1006.7
20260506023043 59 202 3.0 3.0 0.14 0.40 0.40 91 1006.7
20260506022540 59 197 3.0 3.0 0.07 0.39 0.39 91 1006.8
20260506022038 59 161 1.0 1.0 0.05 0.38 0.38 91 1006.7
20260506021535 59 15 1.0 3.0 0.12 0.38 0.38 91 1006.8
20260506021033 59 295 1.0 7.0 0.12 0.37 0.37 91 1006.7
20260506020530 59 189 1.0 3.0 0.12 0.36 0.36 91 1006.9
20260506020027 59 202 2.0 2.0 0.19 0.35 0.35 91 1006.8
20260506015525 59 163 1.0 2.0 0.12 0.33 0.33 91 1006.9
20260506015021 59 218 1.0 2.0 0.12 0.32 0.32 91 1006.8
20260506014519 60 138 1.0 3.0 0.12 0.31 0.31 92 1006.8
20260506014015 60 108 0.0 1.0 0.12 0.30 0.30 92 1006.5
20260506013513 60 102 0.0 0.0 0.12 0.29 0.29 92 1006.7
20260506013009 60 139 0.0 0.0 0.05 0.28 0.28 92 1006.6
20260506012505 60 142 0.0 0.0 0.07 0.27 0.27 92 1006.4
20260506012002 60 181 0.0 0.0 0.07 0.27 0.27 92 1006.4
20260506011500 60 181 0.0 0.0 0.00 0.26 0.26 92 1006.4
20260506010956 60 182 0.0 0.0 0.00 0.26 0.26 91 1006.3
20260506010455 60 182 0.0 0.0 0.00 0.26 0.26 91 1006.3
20260506005951 60 223 2.0 2.0 0.00 0.26 0.26 91 1006.2
20260506005449 60 164 1.0 1.0 0.07 0.26 0.26 91 1006.3
20260506004944 60 140 1.0 2.0 0.07 0.26 0.26 91 1006.3
20260506004442 60 160 0.0 1.0 0.05 0.25 0.25 91 1006.3
20260506003938 60 163 1.0 2.0 0.05 0.25 0.25 91 1006.4
20260506003435 60 165 1.0 1.0 0.07 0.24 0.24 91 1006.4
20260506002931 60 165 1.0 2.0 0.00 0.23 0.23 91 1006.5
20260506002427 60 162 1.0 2.0 0.00 0.23 0.23 91 1006.5
20260506001922 60 100 0.0 0.0 0.00 0.23 0.23 91 1006.3
20260506001420 60 116 1.0 1.0 0.00 0.23 0.23 91 1006.4
20260506000917 60 115 1.0 3.0 0.05 0.23 0.23 91 1006.4
20260506000416 60 166 2.0 4.0 0.12 0.23 0.23 91 1006.5
20260505235911 60 97 1.0 2.0 0.07 0.22 0.22 91 1006.4
20260505235409 60 143 0.0 0.0 0.00 0.21 0.21 91 1006.3
20260505234906 60 96 0.0 0.0 0.00 0.21 0.21 91 1006.4
20260505234403 60 134 0.0 0.0 0.00 0.21 0.21 91 1006.5
20260505233900 60 117 0.0 0.0 0.00 0.21 0.21 91 1006.4
20260505233358 60 86 0.0 0.0 0.00 0.21 0.21 91 1006.4
20260505232855 60 123 0.0 0.0 0.00 0.21 0.21 91 1006.5
20260505232353 60 89 0.0 0.0 0.05 0.21 0.21 90 1006.6
20260505231849 60 97 0.0 1.0 0.05 0.21 0.21 90 1006.6
20260505231347 60 93 0.0 0.0 0.00 0.20 0.20 90 1006.8
20260505230845 60 87 0.0 2.0 0.00 0.20 0.20 90 1006.7
20260505230342 60 121 0.0 0.0 0.00 0.20 0.20 90 1006.7
20260505225839 60 25 0.0 1.0 0.00 0.20 0.20 90 1006.9
20260505225336 60 99 0.0 1.0 0.00 0.20 0.20 90 1006.8
20260505224830 60 326 0.0 1.0 0.00 0.20 0.20 90 1006.8